User: anonymous   Login
Location: Asis
(14.1331°N, 120.9056°E)
Time: 14:43:21
(UTC+00:00)
Language:

Spot 4 Rocket - Orbit

View from above orbital plane
View from above orbital plane
View from above satellite
View from above satellite

Ground track
Ground track

The orbit is defined by the following mean orbital elements,

1 25261U          26074.31971367 +.00000000 +00000-0 +15622-3 0 00004
2 25261  98.8254 103.0477 0004213  54.9716 305.1864 14.36275202    07
Epoch (UTC): 15 March 2026 07:40:23
Eccentricity: 0.0004213
inclination: 98.8254°
perigee height: 768 km
apogee height: 774 km
right ascension of ascending node: 103.0477°
argument of perigee: 54.9716°
revolutions per day: 14.36275202
mean anomaly at epoch: 305.1864°

The dashed part of the orbit path shows where the satellite is in the earth's shadow,  

DLR